Zurück zum Katalog

FENGYUN 1C DEB

AktivSSO
NORAD 31475·DEBRIS·🇨🇳 China

Gestartet May 10, 1999 von Taiyuan Satellite Launch Center

Loading…

Nächste Überflüge (nächste 24 Stunden)

TLE

AlterndSource: Space-Track

Epoche: Sep 7, 2026, 00:13 UTC

1 31475U 99025BVP 26250.00907311  .00001870  00000-0  47760-3 0  9994
2 31475  98.9144 154.8267 0208579  34.8097 326.6532 14.39578743999377

Verfolge FENGYUN 1C DEB in Echtzeit mit AllMySat

Download on the App Store